Dunkirk, NY

2:46 AM EDT on March 30, 2017 (GMT -0400)
Chautauqua County-Dunkirk

Weather History for KDKK - September, 2014

Change the Weather History Date:

Sunday, September 28, 2014

  Actual Average Record
Temperature  
Mean Temperature 60 °F -  
Max Temperature 75 °F 67 °F 90 °F (1959)
Min Temperature 48 °F 49 °F 37 °F (1957)
Degree Days  
Heating Degree Days 4    
Growing Degree Days 10 (Base 50)    
Moisture  
Dew Point 54 °F    
Average Humidity 80    
Maximum Humidity 97    
Minimum Humidity 49    
Precipitation  
Precipitation 0.00 in - - ()
Sea Level Pressure  
Sea Level Pressure 30.14 in    
Wind  
Wind Speed 2 mph (WNW)    
Max Wind Speed 9 mph    
Max Gust Speed -    
Visibility 10 miles    
Events      
Averages and records for this station are not official NWS values.
T = Trace of Precipitation, MM = Missing Value Source: NWS Daily Summary

Daily Weather History Graph

Daily Weather History Graph

Search for Another Location

Airport or City:

Trip Planner

Search our weather history database for the weather conditions in past years. The results will help you decide how hot, cold, wet, or windy it might be!

Date:

Astronomy

Sep. 28, 2014 Rise Set
Actual Time 7:10 AM EDT 7:03 PM EDT
Civil Twilight 6:42 AM EDT 7:31 PM EDT
Nautical Twilight 6:10 AM EDT 8:04 PM EDT
Astronomical Twilight 5:36 AM EDT 8:37 PM EDT
Moon 11:28 AM EDT (9/28) 9:41 PM EDT (9/28)
Length of Visible Light 12h 48m
Length of Day
11h 52m
Waxing Crescent, 19% of the Moon is Illuminated
Sep 28
Waxing Crescent
Oct 1
First Quarter
Oct 8
Full
Oct 15
Last Quarter
Oct 23
New

Hourly Weather History & Observations

Time (EDT) Temp. Dew Point Humidity Pressure Visibility Wind Dir Wind Speed Gust Speed Precip Events Conditions
12:53 AM 50.0 °F 48.9 °F 96% 30.21 in 9.0 mi Calm Calm - N/A   Clear
1:53 AM 48.9 °F 48.0 °F 97% 30.20 in 9.0 mi South 3.5 mph - N/A   Clear
2:53 AM 48.9 °F 48.0 °F 97% 30.20 in 9.0 mi Calm Calm - N/A   Clear
3:53 AM 48.9 °F 48.0 °F 97% 30.19 in 9.0 mi Calm Calm - N/A   Clear
4:53 AM 50.0 °F 48.0 °F 93% 30.19 in 10.0 mi Calm Calm - N/A   Clear
5:53 AM 51.1 °F 48.9 °F 92% 30.18 in 10.0 mi Calm Calm - N/A   Clear
6:53 AM 51.1 °F 50.0 °F 96% 30.18 in 10.0 mi Calm Calm - N/A   Clear
7:53 AM 53.1 °F 51.1 °F 93% 30.19 in 10.0 mi South 3.5 mph - N/A   Clear
8:53 AM 60.1 °F 55.9 °F 86% 30.19 in 10.0 mi Calm Calm - N/A   Clear
9:53 AM 68.0 °F 59.0 °F 73% 30.19 in 10.0 mi NW 4.6 mph - N/A   Clear
10:53 AM 70.0 °F 59.0 °F 68% 30.18 in 10.0 mi North 5.8 mph - N/A   Clear
11:53 AM 69.1 °F 59.0 °F 70% 30.17 in 10.0 mi North 6.9 mph - N/A   Clear
12:53 PM 71.1 °F 59.0 °F 66% 30.16 in 10.0 mi Variable 5.8 mph - N/A   Clear
1:53 PM 73.0 °F 53.1 °F 49% 30.14 in 10.0 mi WNW 5.8 mph - N/A   Clear
2:53 PM 73.0 °F 54.0 °F 51% 30.11 in 10.0 mi North 4.6 mph - N/A   Clear
3:53 PM 71.1 °F 55.9 °F 59% 30.10 in 10.0 mi West 3.5 mph - N/A   Clear
4:53 PM 73.0 °F 54.0 °F 51% 30.09 in 10.0 mi West 9.2 mph - N/A   Clear
5:53 PM 70.0 °F 59.0 °F 68% 30.08 in 10.0 mi NW 5.8 mph - N/A   Clear
6:53 PM 68.0 °F 60.1 °F 76% 30.07 in 10.0 mi Calm Calm - N/A   Clear
7:53 PM 63.0 °F 59.0 °F 87% 30.07 in 10.0 mi SSE 4.6 mph - N/A   Clear
8:53 PM 62.1 °F 57.9 °F 86% 30.07 in 10.0 mi Calm Calm - N/A   Clear
9:53 PM 60.1 °F 57.9 °F 93% 30.07 in 10.0 mi Calm Calm - N/A   Clear
10:53 PM 60.1 °F 57.9 °F 93% 30.06 in 10.0 mi Calm Calm - N/A   Clear
11:53 PM 57.9 °F 55.9 °F 93% 30.06 in 10.0 mi Calm Calm - N/A   Clear